Regional Weather Roundup
Issued by NWS

Home | Current Version | Previous Version | Graphics & Text | Print | Product List | Glossary On
Versions: 1 2 3 4 5 6 7 8 9 10 11 12 13 14 15 16 17 18 19 20 21 22 23 24 25 26 27 28 29 30 31 32 33 34 35 36 37 38 39 40 41 42 43 44 45 46 47 48 49 50
000
ASUS45 KTFX 201219
RWRMT
MONTANA HOURLY WEATHER ROUNDUP
NATIONAL WEATHER SERVICE GREAT FALLS MT
519 AM MST THU NOV 20 2014

NOTE: "FAIR" INDICATES FEW OR NO CLOUDS BELOW 12000 FEET WITH NO
SIGNIFICANT WEATHER AND/OR OBSTRUCTIONS TO VISIBILITY.

* THESE STATIONS ARE NOT UNDER NWS QUALITY CONTROL. THEY DO NOT
   REPORT WEATHER SUCH AS PRECIPITATION OR FOG.

MTZ001>007-043-201300-
WEST OF THE DIVIDE
CITY           SKY/WX    TMP DP  RH WIND       PRES   REMARKS
KALISPELL      FOG       21  19  92 CALM      30.06S
MISSOULA       CLOUDY    19  18  96 CALM      30.06S
BUTTE          CLOUDY    16  12  84 CALM      29.98R
MULLAN PASS    CLOUDY    34  12  40 SW6       29.93F WCI  29
* ESSEX        N/A       12   9  88 N/A        N/A
* EUREKA APT   PTCLDY    18  14  84 CALM      30.10S
* HAMILTON APT MOCLDY    21  18  88 CALM      30.02S
* LIBBY APT    MOCLDY    18  14  84 CALM      30.08F
* LINCOLN      N/A       14  10  84 NE2        N/A
* POLSON       N/A       21  20  96 S1         N/A
* RONAN APT    MOCLDY    21  19  92 N/A        N/A
* SEELEY LAKE  N/A       12   9  88 NE1        N/A
* THOMP F APT  CLOUDY    24  13  63 N2G8       N/A
* YAAK HILL    N/A       22  18  85 N/A        N/A
$$

MTZ008-052>055-201300-
SOUTHWEST MONTANA
CITY           SKY/WX    TMP DP  RH WIND       PRES   REMARKS
BOZEMAN        PTCLDY    21  18  88 SE5       29.97S WCI  14
DILLON         MOCLDY    30  19  64 S7        29.98S WCI  23
* W YELLOWSTON CLEAR     15  11  84 N/A        N/A
* ENNIS APT    CLEAR     28  18  66 S11        N/A   WCI  18
* THREE FORKS  PTCLDY    16  16 100 N/A        N/A
* BOULDER HILL N/A       33  13  44 S10        N/A   WCI  25
* MONIDA PASS  N/A       19  13  77 SE12       N/A   WCI   6
* RAYNOLDS PAS N/A       19   3  49 SE10       N/A   WCI   8
* WHITEHALL    N/A       26  16  66 NW1G10     N/A
* WISE RIVER   N/A       20  15  81 W1         N/A
$$

MTZ009>010-012-014-046-048-049-054-201300-
EAST SLOPES AND CENTRAL MONTANA
CITY           SKY/WX    TMP DP  RH WIND       PRES   REMARKS
CUT BANK       FOG       12   9  88 SE5       29.81F VSB 1/2  WCI   4
GREAT FALLS    CLEAR     30  18  61 S13       29.83F WCI  20
HELENA         CLOUDY    19  16  88 CALM      29.97S
MALMSTROM AFB  CLEAR     14  12  92 N8        29.86F WCI   3
* CONRAD       CLEAR      9   7  91 CALM       N/A
* DEARBORN     N/A       34  19  54 S6G11      N/A   WCI  29
* EAST GLACIER N/A       39  11  31 W29G40     N/A   WCI  27
* MONARCH      N/A       30  11  45 S10        N/A   WCI  21
* PENDROY      N/A       32  16  52 N/A        N/A
* ROGERS PASS  N/A       29  13  51 SE7G24     N/A   WCI  22
* SAINT MARY   N/A       40  10  29 S11G25     N/A   WCI  33
* SWEET GRASS  N/A       13  12  96 S10        N/A
* WHITE SULPH  N/A       17  10  74 W2         N/A
$$

MTZ011-013-016-021-035-040-045-047-050-051-201300-
NORTH CENTRAL MONTANA
CITY           SKY/WX    TMP DP  RH WIND       PRES   REMARKS
HAVRE          FOG       21  19  92 CALM      29.90F VSB 1
LEWISTOWN      PTCLDY    23  16  74 SE6       29.85F WCI  16
* N BAR RANCH  CLEAR     27  16  63 W6        29.86S WCI  20
* CHINOOK      PTCLDY    19  18  96 CALM      29.91F VSB 2
* FORT BENTON  PTCLDY    16  12  84 CALM      29.90F VSB 1
* MALTA APT    PTCLDY    23  18  81 N/A        N/A
* CHESTER      N/A       19  17  92 S2         N/A
* DENTON       N/A       11   9  92 N/A        N/A
* GEYSER       N/A       24  16  71 N/A        N/A
* JUDITH GAP   N/A       22  19  88 SE4        N/A
* LOMA         N/A       18  17  96 S4         N/A
$$

MTZ017>020-022>027-061-062-201300-
NORTHEAST MONTANA
CITY           SKY/WX    TMP DP  RH WIND       PRES   REMARKS
GLASGOW        CLOUDY    16  10  77 E12       29.94F WCI   3
GLENDIVE       CLOUDY    14  10  84 SE3       29.99F
SIDNEY         CLOUDY    10   5  80 CALM      30.04F
WOLF POINT     CLOUDY    16  12  84 NE5       30.01F WCI   8
* BEAVER HILL  N/A       12  10  92 SE6        N/A   WCI   2
* CIRCLE       N/A       19  16  88 SE5        N/A   WCI  12
* LINDSAY DVD  N/A       13  12  96 SE6        N/A   WCI   4
* PLENTYWOOD A MOCLDY    10   7  88 SW3       30.00F
* POPLAR APT   MOCLDY    16  10  77 N/A       30.01F
* SACO         N/A       20  17  88 E6         N/A   WCI  12
$$

MTZ028>042-056>058-201300-
SOUTHCENTRAL AND SOUTHEAST MONTANA
CITY           SKY/WX    TMP DP  RH WIND       PRES   REMARKS
BAKER          FOG       18  16  92 S6        29.97F VSB 3/4  WCI  10
BILLINGS       CLEAR     21  14  74 SW13      29.89F WCI   8
LIVINGSTON     PTCLDY    39  19  45 W25G35    29.90F WCI  28
MILES CITY     PTCLDY    12  10  92 CALM      29.96F
* BIG TIMBER A PTCLDY    36  18  48 SW17G22   29.88F WCI  26
* FORSYTH APT  CLEAR     10   7  88 CALM      29.94F
* LAUREL APT   CLEAR     19   9  65 N/A        N/A
* ALZADA       N/A       12   9  88 E1         N/A
* HYSHAM       N/A       20  18  92 N/A        N/A
* LAME DEER    N/A       27  16  63 SW4        N/A
* REED POINT   N/A       14  13  96 SE2        N/A
* ROSCOE HILL  N/A       32   9  38 NW1        N/A
$$

REGIONAL REPORTS...DAKOTAS
CITY           SKY/WX    TMP DP  RH WIND       PRES   REMARKS
WILLISTON      CLOUDY    10   5  80 W3        30.05S
DICKINSON      CLOUDY    10   5  80 W6        29.99S
BEACH          CLOUDY    14  12  92 SW8       29.99F WCI   3
CROSBY         LGT SNOW  12   7  80 SW6       30.04S WCI   2
TIOGA          LGT SNOW  10   9  96 W7        30.04F WCI  -1
BISMARCK       LGT SNOW  16  10  77 CALM      30.09F
GRAND FORKS    CLEAR      1  -2  87 W8        30.08R WCI -13
FARGO          CLEAR      1  -2  87 NW6       30.09R WCI -11
BUFFALO SD     PTCLDY    19  16  88 CALM      29.92S
RAPID CITY     FOG       12  10  92 E3        29.99F VSB M1/4
$$

REGIONAL REPORTS...WYOMING/IDAHO/WASHINGTON
CITY           SKY/WX    TMP DP  RH WIND       PRES   REMARKS
GILLETTE       PTCLDY    12   7  80 CALM      29.91F
SHERIDAN       PTCLDY    12   9  88 CALM      29.90F
CODY           PTCLDY    16  12  84 S5        29.90F WCI   8
YELLOWSTONE LA PTCLDY    16  12  84 NW3       30.07S
SALMON         CLOUDY    16  10  77 CALM      30.11R
MULLAN PASS    CLOUDY    34  12  40 SW6       29.93S WCI  29
SAND POINT     CLOUDY    27  21  78 CALM      30.04F
SPOKANE        CLOUDY    30  21  69 NE5       30.00R WCI  25
$$

REGIONAL REPORTS...ALBERTA
CITY           SKY/WX    TMP DP  RH WIND       PRES   REMARKS
CALGARY        MOCLDY    28  21  75 SW6       29.74F WCI  21
LETHBRIDGE     CLOUDY    10  10 100 CALM      29.78F
MEDICINE HAT   FOG       10   9  96 CALM      29.84S VSB 3/4
EDMONTON       PTCLDY    16  12  84 S8        29.71F WCI   5
WATERTON GATE  N/A       37  16  42 SW24G37    N/A   WCI  26
CARDSTON       N/A       21  18  88 S5         N/A   WCI  14
MILK RIVER     N/A       12  10  92 S5         N/A   WCI   4
$$

REGIONAL REPORTS...SASKATCHEWAN
CITY           SKY/WX    TMP DP  RH WIND       PRES   REMARKS
SWIFT CURRENT  CLOUDY    19  18  96 S10       29.85S WCI   8
MOOSE JAW      LGT SNOW  12  10  92 SE2       29.98F
REGINA         LGT SNOW  10   7  88 SW6       29.99F
VAL MARIE      N/A       19  19 100 SW10       N/A   WCI   8
ASSINIBOIA     N/A       14  10  84 SW7        N/A   WCI   4
CORONACH       N/A       12  10  92 S9         N/A

$$




USA.gov is the U.S. government's official web portal to all federal, state and local government web resources and services.